Time,TemperatureF,DewpointF,PressureIn,WindDirection,WindDirectionDegrees,WindSpeedMPH,WindSpeedGustMPH,Humidity,HourlyPrecipIn,Conditions,Clouds,dailyrainin,SoftwareType,DateUTC
2013-09-05 00:06:00,62.2,61.0,30.06,NW,311,0.0,2.0,94,0.00,,,0.00,weatherlink.com 1.10,2013-09-05 04:06:00,
2013-09-05 00:21:00,62.0,61.0,30.06,NNW,330,2.0,3.0,95,0.00,,,0.00,weatherlink.com 1.10,2013-09-05 04:21:00,
2013-09-05 00:36:00,62.1,60.0,30.07,NW,309,3.0,7.0,93,0.00,,,0.00,weatherlink.com 1.10,2013-09-05 04:36:00,
2013-09-05 00:51:00,62.2,59.0,30.07,North,3,4.0,7.0,90,0.00,,,0.00,weatherlink.com 1.10,2013-09-05 04:51:00,
2013-09-05 01:07:00,61.9,59.0,30.08,North,349,4.0,9.0,89,0.00,,,0.00,weatherlink.com 1.10,2013-09-05 05:07:00,
2013-09-05 01:22:00,60.9,58.0,30.08,NW,321,6.0,7.0,89,0.00,,,0.00,weatherlink.com 1.10,2013-09-05 05:22:00,
2013-09-05 01:37:00,60.1,57.0,30.08,NNW,338,4.0,8.0,88,0.00,,,0.00,weatherlink.com 1.10,2013-09-05 05:37:00,
2013-09-05 01:52:00,59.1,56.0,30.08,NW,318,3.0,6.0,88,0.00,,,0.00,weatherlink.com 1.10,2013-09-05 05:52:00,
2013-09-05 02:07:00,58.4,55.0,30.09,NNE,23,4.0,6.0,87,0.00,,,0.00,weatherlink.com 1.10,2013-09-05 06:07:00,
2013-09-05 02:22:00,57.6,54.0,30.09,NW,309,1.0,7.0,87,0.00,,,0.00,weatherlink.com 1.10,2013-09-05 06:22:00,
2013-09-05 02:37:00,57.0,53.0,30.09,NW,322,1.0,3.0,87,0.00,,,0.00,weatherlink.com 1.10,2013-09-05 06:37:00,
2013-09-05 02:52:00,56.3,53.0,30.09,North,8,0.0,3.0,87,0.00,,,0.00,weatherlink.com 1.10,2013-09-05 06:52:00,
2013-09-05 03:07:00,55.5,52.0,30.09,NNW,339,1.0,2.0,88,0.00,,,0.00,weatherlink.com 1.10,2013-09-05 07:07:00,
2013-09-05 03:22:00,54.6,52.0,30.10,NW,326,1.0,3.0,90,0.00,,,0.00,weatherlink.com 1.10,2013-09-05 07:22:00,
2013-09-05 03:37:00,53.8,51.0,30.10,NW,308,0.0,2.0,91,0.00,,,0.00,weatherlink.com 1.10,2013-09-05 07:37:00,
2013-09-05 03:52:00,52.9,51.0,30.11,WNW,302,0.0,1.0,92,0.00,,,0.00,weatherlink.com 1.10,2013-09-05 07:52:00,
2013-09-05 04:07:00,52.6,51.0,30.11,NW,326,2.0,2.0,93,0.00,,,0.00,weatherlink.com 1.10,2013-09-05 08:07:00,
2013-09-05 04:22:00,52.7,51.0,30.12,NW,325,1.0,4.0,92,0.00,,,0.00,weatherlink.com 1.10,2013-09-05 08:22:00,
2013-09-05 04:37:00,52.8,51.0,30.12,WNW,303,3.0,6.0,92,0.00,,,0.00,weatherlink.com 1.10,2013-09-05 08:37:00,
2013-09-05 04:52:00,52.7,50.0,30.12,NW,312,5.0,6.0,91,0.00,,,0.00,weatherlink.com 1.10,2013-09-05 08:52:00,
2013-09-05 05:07:00,52.4,50.0,30.14,NE,35,2.0,4.0,90,0.00,,,0.00,weatherlink.com 1.10,2013-09-05 09:07:00,
2013-09-05 05:22:00,52.0,49.0,30.14,North,3,2.0,5.0,89,0.00,,,0.00,weatherlink.com 1.10,2013-09-05 09:22:00,
2013-09-05 05:37:00,51.6,49.0,30.14,NW,322,1.0,4.0,89,0.00,,,0.00,weatherlink.com 1.10,2013-09-05 09:37:00,
2013-09-05 05:52:00,51.1,48.0,30.16,NNW,328,2.0,4.0,90,0.00,,,0.00,weatherlink.com 1.10,2013-09-05 09:52:00,
2013-09-05 06:07:00,50.6,48.0,30.15,NW,309,0.0,3.0,90,0.00,,,0.00,weatherlink.com 1.10,2013-09-05 10:07:00,
2013-09-05 06:22:00,50.1,48.0,30.16,NW,324,1.0,3.0,91,0.00,,,0.00,weatherlink.com 1.10,2013-09-05 10:22:00,
2013-09-05 06:38:00,49.5,47.0,30.17,North,8,0.0,1.0,91,0.00,,,0.00,weatherlink.com 1.10,2013-09-05 10:38:00,
2013-09-05 06:54:00,48.7,47.0,30.17,NNW,335,0.0,1.0,92,0.00,,,0.00,weatherlink.com 1.10,2013-09-05 10:54:00,
2013-09-05 07:23:00,47.4,46.0,30.18,NNW,334,0.0,0.0,94,0.00,,,0.00,weatherlink.com 1.10,2013-09-05 11:23:00,
2013-09-05 07:38:00,47.9,46.0,30.19,NW,316,0.0,2.0,93,0.00,,,0.00,weatherlink.com 1.10,2013-09-05 11:38:00,
2013-09-05 07:53:00,48.9,46.0,30.19,NW,317,1.0,4.0,89,0.00,,,0.00,weatherlink.com 1.10,2013-09-05 11:53:00,
2013-09-05 08:08:00,49.8,46.0,30.20,NW,310,2.0,5.0,86,0.00,,,0.00,weatherlink.com 1.10,2013-09-05 12:08:00,
2013-09-05 08:23:00,50.4,46.0,30.21,NNE,16,2.0,5.0,85,0.00,,,0.00,weatherlink.com 1.10,2013-09-05 12:23:00,
2013-09-05 08:38:00,51.3,47.0,30.21,NW,324,3.0,5.0,84,0.00,,,0.00,weatherlink.com 1.10,2013-09-05 12:38:00,
2013-09-05 08:53:00,52.4,48.0,30.21,NE,36,4.0,5.0,84,0.00,,,0.00,weatherlink.com 1.10,2013-09-05 12:53:00,
2013-09-05 09:08:00,53.1,48.0,30.21,North,4,3.0,7.0,83,0.00,,,0.00,weatherlink.com 1.10,2013-09-05 13:08:00,
2013-09-05 09:23:00,53.9,49.0,30.22,NNW,333,1.0,7.0,83,0.00,,,0.00,weatherlink.com 1.10,2013-09-05 13:23:00,
2013-09-05 09:38:00,55.2,50.0,30.23,NNW,336,7.0,7.0,81,0.00,,,0.00,weatherlink.com 1.10,2013-09-05 13:38:00,
2013-09-05 09:53:00,55.7,50.0,30.22,NW,320,3.0,7.0,81,0.00,,,0.00,weatherlink.com 1.10,2013-09-05 13:53:00,
2013-09-05 10:08:00,57.2,51.0,30.23,NE,46,3.0,7.0,80,0.00,,,0.00,weatherlink.com 1.10,2013-09-05 14:08:00,
2013-09-05 10:23:00,57.9,51.0,30.23,North,3,6.0,9.0,79,0.00,,,0.00,weatherlink.com 1.10,2013-09-05 14:23:00,
2013-09-05 10:38:00,58.8,52.0,30.23,NW,315,4.0,9.0,79,0.00,,,0.00,weatherlink.com 1.10,2013-09-05 14:38:00,
2013-09-05 10:53:00,59.8,52.0,30.23,NNW,336,3.0,8.0,76,0.00,,,0.00,weatherlink.com 1.10,2013-09-05 14:53:00,
2013-09-05 11:08:00,60.8,52.0,30.23,NE,34,1.0,7.0,74,0.00,,,0.00,weatherlink.com 1.10,2013-09-05 15:08:00,
2013-09-05 11:23:00,61.5,51.0,30.23,NNW,346,6.0,9.0,69,0.00,,,0.00,weatherlink.com 1.10,2013-09-05 15:23:00,
2013-09-05 11:38:00,63.3,53.0,30.23,ENE,59,1.0,4.0,68,0.00,,,0.00,weatherlink.com 1.10,2013-09-05 15:38:00,
2013-09-05 11:53:00,62.8,51.0,30.23,NW,318,3.0,12.0,66,0.00,,,0.00,weatherlink.com 1.10,2013-09-05 15:53:00,
2013-09-05 12:08:00,63.8,51.0,30.22,WNW,288,6.0,9.0,64,0.00,,,0.00,weatherlink.com 1.10,2013-09-05 16:08:00,
2013-09-05 12:23:00,63.9,52.0,30.23,SSE,150,1.0,10.0,65,0.00,,,0.00,weatherlink.com 1.10,2013-09-05 16:23:00,
2013-09-05 12:38:00,65.3,51.0,30.23,NNE,27,4.0,10.0,61,0.00,,,0.00,weatherlink.com 1.10,2013-09-05 16:38:00,
2013-09-05 12:53:00,65.2,50.0,30.23,NNW,336,3.0,9.0,59,0.00,,,0.00,weatherlink.com 1.10,2013-09-05 16:53:00,
2013-09-05 13:08:00,66.3,51.0,30.23,NW,323,4.0,8.0,58,0.00,,,0.00,weatherlink.com 1.10,2013-09-05 17:08:00,
2013-09-05 13:23:00,65.7,51.0,30.23,NW,313,6.0,8.0,60,0.00,,,0.00,weatherlink.com 1.10,2013-09-05 17:23:00,
2013-09-05 13:38:00,67.0,51.0,30.22,NNW,331,2.0,8.0,56,0.00,,,0.00,weatherlink.com 1.10,2013-09-05 17:38:00,
2013-09-05 13:53:00,68.4,51.0,30.22,NNE,15,1.0,7.0,54,0.00,,,0.00,weatherlink.com 1.10,2013-09-05 17:53:00,
2013-09-05 14:08:00,67.0,48.0,30.22,NNE,17,7.0,11.0,50,0.00,,,0.00,weatherlink.com 1.10,2013-09-05 18:08:00,
2013-09-05 14:23:00,66.9,49.0,30.22,North,8,4.0,10.0,53,0.00,,,0.00,weatherlink.com 1.10,2013-09-05 18:23:00,
2013-09-05 14:38:00,67.8,49.0,30.21,NNE,22,4.0,11.0,52,0.00,,,0.00,weatherlink.com 1.10,2013-09-05 18:38:00,
2013-09-05 14:53:00,68.6,48.0,30.21,NNW,334,2.0,10.0,48,0.00,,,0.00,weatherlink.com 1.10,2013-09-05 18:53:00,
2013-09-05 15:08:00,68.6,50.0,30.21,SE,138,1.0,8.0,52,0.00,,,0.00,weatherlink.com 1.10,2013-09-05 19:08:00,
2013-09-05 15:23:00,69.2,50.0,30.21,NNE,27,5.0,10.0,50,0.00,,,0.00,weatherlink.com 1.10,2013-09-05 19:23:00,
2013-09-05 15:38:00,69.5,48.0,30.21,North,359,4.0,7.0,46,0.00,,,0.00,weatherlink.com 1.10,2013-09-05 19:38:00,
2013-09-05 15:53:00,70.0,50.0,30.21,NE,36,0.0,7.0,49,0.00,,,0.00,weatherlink.com 1.10,2013-09-05 19:53:00,
2013-09-05 16:09:00,68.9,48.0,30.20,NNW,328,4.0,11.0,48,0.00,,,0.00,weatherlink.com 1.10,2013-09-05 20:09:00,
2013-09-05 16:24:00,68.6,50.0,30.20,North,1,1.0,14.0,51,0.00,,,0.00,weatherlink.com 1.10,2013-09-05 20:24:00,
2013-09-05 16:39:00,68.5,50.0,30.20,NNE,18,3.0,8.0,52,0.00,,,0.00,weatherlink.com 1.10,2013-09-05 20:39:00,
2013-09-05 16:54:00,68.6,48.0,30.21,NW,315,5.0,9.0,48,0.00,,,0.00,weatherlink.com 1.10,2013-09-05 20:54:00,
2013-09-05 17:09:00,69.7,48.0,30.21,North,353,1.0,8.0,46,0.00,,,0.00,weatherlink.com 1.10,2013-09-05 21:09:00,
2013-09-05 17:24:00,69.3,50.0,30.21,NNW,347,4.0,8.0,50,0.00,,,0.00,weatherlink.com 1.10,2013-09-05 21:24:00,
2013-09-05 17:39:00,68.2,48.0,30.21,NNW,339,1.0,10.0,48,0.00,,,0.00,weatherlink.com 1.10,2013-09-05 21:39:00,
2013-09-05 17:54:00,67.8,47.0,30.21,ESE,105,0.0,8.0,47,0.00,,,0.00,weatherlink.com 1.10,2013-09-05 21:54:00,
2013-09-05 18:09:00,67.5,46.0,30.21,NNE,18,0.0,8.0,47,0.00,,,0.00,weatherlink.com 1.10,2013-09-05 22:09:00,
2013-09-05 18:24:00,68.0,45.0,30.21,East,89,4.0,8.0,44,0.00,,,0.00,weatherlink.com 1.10,2013-09-05 22:24:00,
2013-09-05 18:39:00,68.3,45.0,30.21,NW,306,0.0,5.0,44,0.00,,,0.00,weatherlink.com 1.10,2013-09-05 22:39:00,
2013-09-05 18:54:00,68.1,43.0,30.21,ENE,66,0.0,2.0,40,0.00,,,0.00,weatherlink.com 1.10,2013-09-05 22:54:00,
2013-09-05 19:09:00,67.5,43.0,30.21,NNE,22,1.0,3.0,42,0.00,,,0.00,weatherlink.com 1.10,2013-09-05 23:09:00,
2013-09-05 19:24:00,67.0,44.0,30.21,ESE,121,0.0,2.0,43,0.00,,,0.00,weatherlink.com 1.10,2013-09-05 23:24:00,
2013-09-05 19:39:00,64.9,43.0,30.21,North,8,0.0,1.0,46,0.00,,,0.00,weatherlink.com 1.10,2013-09-05 23:39:00,
2013-09-05 19:54:00,61.9,43.0,30.21,West,278,0.0,1.0,51,0.00,,,0.00,weatherlink.com 1.10,2013-09-05 23:54:00,
2013-09-05 20:09:00,58.8,46.0,30.21,West,278,0.0,0.0,63,0.00,,,0.00,weatherlink.com 1.10,2013-09-06 00:09:00,
2013-09-05 20:24:00,56.3,45.0,30.21,West,278,0.0,0.0,67,0.00,,,0.00,weatherlink.com 1.10,2013-09-06 00:24:00,
2013-09-05 20:39:00,53.6,45.0,30.22,West,278,0.0,0.0,73,0.00,,,0.00,weatherlink.com 1.10,2013-09-06 00:39:00,
2013-09-05 20:54:00,53.1,46.0,30.22,West,278,0.0,0.0,76,0.00,,,0.00,weatherlink.com 1.10,2013-09-06 00:54:00,
2013-09-05 21:09:00,51.3,45.0,30.22,West,278,0.0,0.0,79,0.00,,,0.00,weatherlink.com 1.10,2013-09-06 01:09:00,
2013-09-05 21:24:00,50.3,46.0,30.23,West,278,0.0,0.0,84,0.00,,,0.00,weatherlink.com 1.10,2013-09-06 01:24:00,
2013-09-05 21:39:00,50.0,46.0,30.23,West,278,0.0,0.0,85,0.00,,,0.00,weatherlink.com 1.10,2013-09-06 01:39:00,
2013-09-05 21:54:00,49.1,45.0,30.23,West,278,0.0,0.0,87,0.00,,,0.00,weatherlink.com 1.10,2013-09-06 01:54:00,
2013-09-05 22:09:00,48.8,46.0,30.23,West,278,0.0,0.0,89,0.00,,,0.00,weatherlink.com 1.10,2013-09-06 02:09:00,
2013-09-05 22:24:00,47.9,45.0,30.23,West,278,0.0,0.0,90,0.00,,,0.00,weatherlink.com 1.10,2013-09-06 02:24:00,
2013-09-05 22:39:00,47.5,45.0,30.23,West,278,0.0,0.0,92,0.00,,,0.00,weatherlink.com 1.10,2013-09-06 02:39:00,
2013-09-05 22:54:00,47.3,45.0,30.23,West,278,0.0,0.0,93,0.00,,,0.00,weatherlink.com 1.10,2013-09-06 02:54:00,
2013-09-05 23:09:00,47.1,45.0,30.23,West,278,0.0,0.0,92,0.00,,,0.00,weatherlink.com 1.10,2013-09-06 03:09:00,
2013-09-05 23:24:00,48.3,46.0,30.23,ENE,76,0.0,1.0,93,0.00,,,0.00,weatherlink.com 1.10,2013-09-06 03:24:00,
2013-09-05 23:39:00,48.7,46.0,30.23,ENE,76,0.0,0.0,90,0.00,,,0.00,weatherlink.com 1.10,2013-09-06 03:39:00,
2013-09-05 23:54:00,47.6,45.0,30.23,East,94,0.0,0.0,90,0.00,,,0.00,weatherlink.com 1.10,2013-09-06 03:54:00,